TimeMST,TemperatureF,Dew PointF,Humidity,Sea Level PressureIn,VisibilityMPH,Wind Direction,Wind SpeedMPH,Gust SpeedMPH,PrecipitationIn,Events,Conditions,WindDirDegrees,DateUTC
12:58 AM,30.2,12.9,49,30.30,10.0,North,5.8,-,N/A,,Clear,350,2013-01-15 07:58:00
1:58 AM,35.6,-0.4,22,30.31,10.0,NNE,11.5,-,N/A,,Clear,20,2013-01-15 08:58:00
2:58 AM,30.7,3.9,32,30.33,10.0,NNW,9.2,-,N/A,,Clear,340,2013-01-15 09:58:00
3:58 AM,28.6,4.1,35,30.34,10.0,NNW,8.1,-,N/A,,Clear,340,2013-01-15 10:58:00
4:58 AM,30.0,3.2,32,30.34,10.0,North,9.2,-,N/A,,Clear,360,2013-01-15 11:58:00
5:58 AM,29.1,5.4,37,30.35,10.0,NNW,2.3,-,N/A,,Clear,340,2013-01-15 12:58:00
6:58 AM,28.4,5.4,38,30.38,10.0,North,9.2,-,N/A,,Clear,350,2013-01-15 13:58:00
7:58 AM,27.9,4.1,36,30.41,10.0,NNW,3.5,-,N/A,,Clear,340,2013-01-15 14:58:00
8:58 AM,32.7,4.1,30,30.43,10.0,NNW,8.1,-,N/A,,Clear,330,2013-01-15 15:58:00
9:58 AM,39.4,0.1,19,30.45,10.0,NNE,5.8,-,N/A,,Clear,20,2013-01-15 16:58:00
10:58 AM,43.0,-3.1,14,30.43,10.0,NNE,10.4,-,N/A,Rain,Light Rain,30,2013-01-15 17:58:00
11:58 AM,45.0,-3.1,13,30.42,10.0,NNE,11.5,-,N/A,,Clear,30,2013-01-15 18:58:00
12:58 PM,46.9,-3.1,12,30.38,10.0,North,8.1,-,N/A,,Clear,350,2013-01-15 19:58:00
1:58 PM,48.2,-4.0,11,30.35,10.0,Calm,Calm,-,N/A,,Clear,0,2013-01-15 20:58:00
2:58 PM,49.6,-2.7,11,30.34,10.0,Variable,2.3,-,N/A,,Clear,0,2013-01-15 21:58:00
3:58 PM,49.6,-2.7,11,30.34,10.0,WNW,1.2,-,N/A,,Clear,300,2013-01-15 22:58:00
4:58 PM,50.0,-0.8,12,30.36,10.0,WSW,4.6,-,N/A,,Clear,240,2013-01-15 23:58:00
5:58 PM,47.8,-0.8,13,30.36,10.0,South,3.5,-,N/A,,Clear,180,2013-01-16 00:58:00
6:58 PM,44.4,1.6,17,30.37,10.0,SW,2.3,-,N/A,,Clear,230,2013-01-16 01:58:00
7:58 PM,41.5,7.3,24,30.38,10.0,Calm,Calm,-,N/A,,Clear,0,2013-01-16 02:58:00
8:58 PM,41.0,7.5,25,30.37,10.0,North,4.6,-,N/A,,Clear,10,2013-01-16 03:58:00
9:58 PM,40.3,9.0,28,30.37,10.0,NW,6.9,-,N/A,,Clear,310,2013-01-16 04:58:00
10:58 PM,37.6,10.4,33,30.38,10.0,NW,3.5,-,N/A,,Clear,320,2013-01-16 05:58:00
11:58 PM,35.6,12.6,39,30.39,10.0,NNW,5.8,-,N/A,,Clear,340,2013-01-16 06:58:00